Torna al catalogo

FENGYUN 1C DEB

AttivoSSO
NORAD 30392·DEBRIS·🇨🇳 China

Lanciato May 10, 1999 da Taiyuan Satellite Launch Center

Loading…

Prossimi Passaggi (prossime 24 ore)

TLE

AggiornatoSource: Space-Track

Epoca: Sep 14, 2026, 00:45 UTC

1 30392U 99025ADF 26257.03170225  .00000574  00000-0  31410-3 0  9992
2 30392  98.7719 273.1071 0178694 300.6982  83.2072 14.08003566  5363

Traccia FENGYUN 1C DEB in tempo reale con AllMySat

Download on the App Store